+ View the NASA Portal
+ Center for Near-Earth Object Studies
IMPORTANT:
The SSD Announcement email list is now available. Major changes are coming in the near future, including possible hostname and/or URL changes. To be notified of such changes, subscribe to this email list.
Please visit
this page
for more details.
Don't show this message again
JPL Small-Body Database Browser
Search:
[
help
]
226284 (2003 BC17)
Classification:
Main-belt Asteroid
SPK-ID:
2226284
[
Ephemeris
|
Orbit Diagram
|
Orbital Elements
|
Mission Design
|
Physical Parameters
|
Discovery Circumstances
]
[ show orbit diagram ]
Orbital Elements at Epoch 2458600.5 (2019-Apr-27.0) TDB
Reference:
JPL 12
(heliocentric ecliptic J2000)
Element
Value
Uncertainty (1-sigma)
Units
e
.1205825219789538
6.0596e-08
a
2.443074234102065
1.9452e-08
au
q
2.148482181572237
1.5392e-07
au
i
9.197765449447273
6.634e-06
deg
node
120.5056680298034
4.1861e-05
deg
peri
353.4536451034909
5.2705e-05
deg
M
115.7279858771002
3.5801e-05
deg
t
p
2458152.127140892043
(2018-Feb-02.62714089)
0.00013567
TDB
period
1394.772647735198
3.82
1.6658e-05
4.561e-08
d
yr
n
.2581065814450552
3.0826e-09
deg/d
Q
2.737666286631894
2.1798e-08
au
Orbit Determination Parameters
# obs. used (total)
179
data-arc span
7891 days (21.60 yr)
first obs. used
1996-06-16
last obs. used
2018-01-23
planetary ephem.
DE431
SB-pert. ephem.
SB431-N16
condition code
0
norm. resid. RMS
.62519
source
ORB
producer
Otto Matic
solution date
2018-Feb-06 08:23:59
Additional Information
Earth MOID
= 1.16541 au
Jupiter MOID
= 2.35084 au
T_jup
= 3.473
[ show covariance matrix ]
[
Ephemeris
|
Orbit Diagram
|
Orbital Elements
|
Mission Design
|
Physical Parameters
|
Discovery Circumstances
]
Physical Parameter Table
Parameter
Symbol
Value
Units
Sigma
Reference
Notes
absolute magnitude
H
16.7
n/a
MPO433482
226284 (2003 BC17)
Discovered 2003-Jan-26 by NEAT at Haleakala
Reference:
20091202/Numbers.arc
Last Updated:
2009-12-04
Alternate Designations
2003 BC17
= 1999 BS32
[
Ephemeris
|
Orbit Diagram
|
Orbital Elements
|
Mission Design
|
Physical Parameters
|
Discovery Circumstances
]
2019-Dec-10 03:07 UT
(server date/time)
Site Manager:
Ryan S. Park
Webmaster
:
Alan B. Chamberlin